| time (UTC) | temp F | wind direction | speed MPH | gust MPH | rain 1hr in | rain 24hr in | rain mn in | humidity % | barometer mb |
| 20260505125017 | 57 | 0.0 | 1.0 | 0.00 | 0.25 | 0.25 | 87 | 1012.9 | |
| 20260505124017 | 57 | 0.0 | 2.0 | 0.00 | 0.25 | 0.25 | 87 | 1013.0 | |
| 20260505123016 | 56 | 157 | 1.0 | 5.0 | 0.00 | 0.25 | 0.25 | 89 | 1013.0 |
| 20260505122017 | 55 | 0.0 | 3.0 | 0.00 | 0.25 | 0.25 | 89 | 1013.1 | |
| 20260505121017 | 55 | 112 | 1.0 | 5.0 | 0.00 | 0.25 | 0.25 | 89 | 1013.1 |
| 20260505120017 | 56 | 0.0 | 1.0 | 0.00 | 0.25 | 0.25 | 87 | 1013.1 | |
| 20260505115037 | 56 | 0.0 | 1.0 | 0.00 | 0.25 | 0.25 | 84 | 1013.1 | |
| 20260505114017 | 56 | 0.0 | 0.0 | 0.00 | 0.25 | 0.25 | 83 | 1013.0 | |
| 20260505113017 | 56 | 0.0 | 1.0 | 0.00 | 0.25 | 0.25 | 84 | 1013.1 | |
| 20260505112017 | 56 | 0.0 | 1.0 | 0.00 | 0.25 | 0.25 | 83 | 1013.1 | |
| 20260505111017 | 56 | 0.0 | 0.0 | 0.00 | 0.25 | 0.25 | 84 | 1013.1 | |
| 20260505102037 | 55 | 247 | 1.0 | 3.0 | 0.00 | 0.25 | 0.25 | 90 | 1013.3 |
| 20260505101016 | 54 | 225 | 2.0 | 4.0 | 0.00 | 0.25 | 0.25 | 91 | 1013.4 |
| 20260505100037 | 54 | 180 | 1.0 | 3.0 | 0.00 | 0.25 | 0.25 | 92 | 1013.4 |
| 20260505095057 | 54 | 180 | 1.0 | 4.0 | 0.00 | 0.25 | 0.25 | 92 | 1013.4 |
| 20260505094036 | 54 | 180 | 2.0 | 5.0 | 0.00 | 0.25 | 0.25 | 92 | 1013.5 |
| 20260505093017 | 53 | 180 | 3.0 | 5.0 | 0.00 | 0.25 | 0.25 | 92 | 1013.4 |
| 20260505092017 | 53 | 180 | 2.0 | 6.0 | 0.00 | 0.25 | 0.25 | 92 | 1013.3 |
| 20260505091017 | 53 | 225 | 3.0 | 7.0 | 0.00 | 0.25 | 0.25 | 93 | 1013.2 |
| 20260505090037 | 53 | 247 | 3.0 | 7.0 | 0.00 | 0.25 | 0.25 | 92 | 1013.3 |
| 20260505085017 | 53 | 247 | 3.0 | 8.0 | 0.00 | 0.25 | 0.25 | 93 | 1013.2 |
| 20260505084037 | 53 | 225 | 2.0 | 7.0 | 0.00 | 0.25 | 0.25 | 93 | 1013.1 |
| 20260505083017 | 52 | 180 | 2.0 | 5.0 | 0.00 | 0.25 | 0.25 | 93 | 1013.0 |
| 20260505082016 | 52 | 180 | 2.0 | 6.0 | 0.00 | 0.25 | 0.25 | 93 | 1012.9 |
| 20260505081016 | 52 | 180 | 3.0 | 7.0 | 0.00 | 0.25 | 0.25 | 94 | 1012.9 |
| 20260505080016 | 52 | 180 | 2.0 | 5.0 | 0.00 | 0.25 | 0.25 | 94 | 1012.8 |
| 20260505075017 | 52 | 180 | 1.0 | 5.0 | 0.00 | 0.25 | 0.25 | 94 | 1012.7 |
| 20260505074016 | 52 | 157 | 2.0 | 8.0 | 0.00 | 0.25 | 0.25 | 94 | 1012.7 |
| 20260505073017 | 52 | 157 | 2.0 | 6.0 | 0.01 | 0.25 | 0.25 | 95 | 1012.6 |
| 20260505072016 | 52 | 157 | 1.0 | 5.0 | 0.00 | 0.25 | 0.25 | 94 | 1012.6 |
| 20260505071016 | 52 | 157 | 2.0 | 7.0 | 0.00 | 0.25 | 0.25 | 94 | 1012.7 |
| 20260505070017 | 51 | 180 | 2.0 | 5.0 | 0.01 | 0.25 | 0.25 | 93 | 1012.5 |
| 20260505065016 | 51 | 180 | 1.0 | 4.0 | 0.01 | 0.25 | 0.25 | 93 | 1012.5 |
| 20260505064016 | 51 | 315 | 1.0 | 5.0 | 0.02 | 0.25 | 0.25 | 93 | 1012.4 |
| 20260505063016 | 50 | 0 | 2.0 | 7.0 | 0.03 | 0.24 | 0.24 | 93 | 1012.3 |
| 20260505062017 | 50 | 0 | 2.0 | 7.0 | 0.05 | 0.24 | 0.24 | 94 | 1012.4 |
| 20260505061016 | 50 | 0.0 | 5.0 | 0.07 | 0.24 | 0.24 | 94 | 1012.5 | |
| 20260505060017 | 50 | 0.0 | 3.0 | 0.09 | 0.23 | 0.23 | 95 | 1012.5 | |
| 20260505055016 | 50 | 0 | 1.0 | 5.0 | 0.12 | 0.23 | 0.23 | 94 | 1012.6 |
| 20260505054016 | 50 | 0.0 | 0.0 | 0.14 | 0.22 | 0.22 | 94 | 1012.6 | |
| 20260505053016 | 50 | 0.0 | 3.0 | 0.14 | 0.21 | 0.21 | 94 | 1012.7 | |
| 20260505052017 | 50 | 0.0 | 0.0 | 0.14 | 0.18 | 0.18 | 94 | 1012.8 | |
| 20260505051017 | 50 | 0.0 | 1.0 | 0.13 | 0.16 | 0.16 | 93 | 1012.8 | |
| 20260505041016 | 51 | 157 | 1.0 | 6.0 | 0.01 | 0.03 | 0.03 | 89 | 1012.9 |
| 20260505040017 | 52 | 0.0 | 4.0 | 0.01 | 0.03 | 0.03 | 87 | 1012.9 | |
| 20260505035016 | 52 | 0.0 | 1.0 | 0.00 | 0.02 | 0.02 | 87 | 1012.8 | |
| 20260505034016 | 52 | 0.0 | 0.0 | 0.00 | 0.01 | 0.01 | 86 | 1012.7 | |
| 20260505033016 | 52 | 0.0 | 0.0 | 0.00 | 0.01 | 0.01 | 84 | 1012.8 | |
| 20260505032016 | 52 | 0.0 | 1.0 | 0.00 | 0.01 | 0.01 | 83 | 1012.8 | |
| 20260505031016 | 53 | 0.0 | 3.0 | 0.00 | 0.01 | 0.01 | 82 | 1012.8 | |
| 20260505030016 | 53 | 180 | 2.0 | 6.0 | 0.00 | 0.01 | 0.01 | 81 | 1012.7 |
| 20260505025016 | 54 | 157 | 1.0 | 5.0 | 0.00 | 0.01 | 0.01 | 77 | 1012.7 |
| 20260505024016 | 55 | 337 | 2.0 | 6.0 | 0.00 | 0.01 | 0.01 | 72 | 1012.6 |
| 20260505023036 | 54 | 0 | 3.0 | 7.0 | 0.00 | 0.01 | 0.01 | 72 | 1012.6 |
| 20260505022016 | 54 | 337 | 1.0 | 7.0 | 0.00 | 0.01 | 0.01 | 74 | 1012.7 |
| 20260505021016 | 54 | 0.0 | 5.0 | 0.00 | 0.01 | 0.01 | 76 | 1012.8 | |
| 20260505020016 | 53 | 0.0 | 7.0 | 0.00 | 0.01 | 0.01 | 78 | 1013.0 | |
| 20260505015017 | 53 | 0 | 4.0 | 10.0 | 0.01 | 0.01 | 0.01 | 79 | 1013.0 |
| 20260505014016 | 53 | 337 | 2.0 | 8.0 | 0.01 | 0.01 | 0.01 | 81 | 1013.2 |
| 20260505013016 | 52 | 337 | 1.0 | 8.0 | 0.01 | 0.01 | 0.01 | 82 | 1013.4 |
| 20260505012016 | 52 | 315 | 1.0 | 6.0 | 0.01 | 0.01 | 0.01 | 81 | 1013.7 |
| 20260505011016 | 53 | 0.0 | 3.0 | 0.01 | 0.01 | 0.01 | 80 | 1014.0 | |
| 20260505010016 | 54 | 0.0 | 0.0 | 0.00 | 0.00 | 0.00 | 78 | 1014.3 | |
| 20260505005016 | 54 | 0.0 | 0.0 | 0.00 | 0.00 | 0.00 | 76 | 1014.5 | |
| 20260505004016 | 54 | 270 | 1.0 | 3.0 | 0.00 | 0.00 | 0.00 | 76 | 1014.8 |
| 20260505003016 | 55 | 247 | 1.0 | 3.0 | 0.00 | 0.00 | 0.00 | 73 | 1015.0 |
| 20260505002016 | 55 | 0.0 | 1.0 | 0.00 | 0.00 | 0.00 | 71 | 1015.0 | |
| 20260505001016 | 56 | 247 | 3.0 | 5.0 | 0.00 | 0.00 | 0.00 | 67 | 1015.2 |
| 20260505000016 | 56 | 270 | 2.0 | 6.0 | 0.00 | 0.00 | 0.00 | 66 | 1015.2 |
| 20260504235016 | 57 | 315 | 4.0 | 11.0 | 0.00 | 0.00 | 0.00 | 63 | 1015.1 |
| 20260504234036 | 56 | 315 | 3.0 | 9.0 | 0.00 | 0.00 | 0.00 | 65 | 1015.2 |
| 20260504233016 | 56 | 135 | 2.0 | 7.0 | 0.00 | 0.00 | 0.00 | 65 | 1015.3 |
| 20260504232016 | 56 | 0.0 | 3.0 | 0.00 | 0.00 | 0.00 | 65 | 1015.5 | |
| 20260504231036 | 56 | 180 | 3.0 | 6.0 | 0.00 | 0.00 | 0.00 | 70 | 1015.5 |
| 20260504230016 | 57 | 315 | 1.0 | 9.0 | 0.00 | 0.00 | 0.00 | 65 | 1015.6 |
| 20260504225016 | 56 | 270 | 1.0 | 9.0 | 0.00 | 0.00 | 0.00 | 61 | 1015.5 |
| 20260504224016 | 55 | 0.0 | 0.0 | 0.00 | 0.00 | 0.00 | 68 | 1015.6 | |
| 20260504223016 | 54 | 0.0 | 1.0 | 0.00 | 0.00 | 0.00 | 75 | 1015.6 | |
| 20260504222016 | 55 | 0.0 | 3.0 | 0.00 | 0.00 | 0.00 | 76 | 1015.7 | |
| 20260504221016 | 55 | 0.0 | 3.0 | 0.00 | 0.00 | 0.00 | 75 | 1015.8 | |
| 20260504220036 | 55 | 202 | 2.0 | 4.0 | 0.00 | 0.00 | 0.00 | 74 | 1016.0 |
| 20260504215015 | 56 | 0.0 | 4.0 | 0.00 | 0.00 | 0.00 | 72 | 1016.3 | |
| 20260504214015 | 56 | 0.0 | 1.0 | 0.00 | 0.00 | 0.00 | 72 | 1016.2 | |
| 20260504213035 | 56 | 247 | 1.0 | 3.0 | 0.00 | 0.00 | 0.00 | 71 | 1016.2 |
| 20260504212015 | 56 | 0.0 | 3.0 | 0.00 | 0.00 | 0.00 | 71 | 1016.5 | |
| 20260504211015 | 56 | 180 | 1.0 | 5.0 | 0.00 | 0.00 | 0.00 | 71 | 1016.5 |
| 20260504210016 | 56 | 225 | 1.0 | 6.0 | 0.00 | 0.00 | 0.00 | 68 | 1016.6 |
| 20260504205015 | 56 | 0.0 | 1.0 | 0.00 | 0.00 | 0.00 | 70 | 1016.7 | |
| 20260504204015 | 56 | 0.0 | 0.0 | 0.00 | 0.00 | 0.00 | 67 | 1016.7 | |
| 20260504203015 | 56 | 0.0 | 4.0 | 0.00 | 0.00 | 0.00 | 67 | 1016.7 | |
| 20260504202015 | 56 | 247 | 3.0 | 6.0 | 0.00 | 0.00 | 0.00 | 68 | 1016.7 |
| 20260504201035 | 56 | 270 | 3.0 | 8.0 | 0.00 | 0.00 | 0.00 | 69 | 1016.7 |
| 20260504200015 | 56 | 315 | 2.0 | 9.0 | 0.00 | 0.00 | 0.00 | 69 | 1016.5 |
| 20260504195015 | 56 | 315 | 5.0 | 11.0 | 0.00 | 0.00 | 0.00 | 70 | 1016.3 |
| 20260504194035 | 56 | 315 | 5.0 | 14.0 | 0.00 | 0.00 | 0.00 | 69 | 1016.3 |
| 20260504193015 | 57 | 292 | 5.0 | 13.0 | 0.00 | 0.00 | 0.00 | 67 | 1016.0 |
| 20260504192015 | 57 | 315 | 6.0 | 13.0 | 0.00 | 0.00 | 0.00 | 68 | 1015.8 |
| 20260504191015 | 57 | 292 | 3.0 | 11.0 | 0.00 | 0.00 | 0.00 | 66 | 1015.9 |
| 20260504190015 | 57 | 270 | 2.0 | 6.0 | 0.00 | 0.00 | 0.00 | 70 | 1016.0 |
| 20260504185055 | 57 | 270 | 1.0 | 7.0 | 0.00 | 0.00 | 0.00 | 70 | 1016.0 |
| 20260504184015 | 57 | 270 | 2.0 | 6.0 | 0.00 | 0.00 | 0.00 | 74 | 1016.1 |
| 20260504183015 | 56 | 202 | 6.0 | 10.0 | 0.00 | 0.00 | 0.00 | 78 | 1016.1 |
| 20260504182015 | 57 | 180 | 4.0 | 10.0 | 0.00 | 0.00 | 0.00 | 77 | 1016.0 |
| 20260504181035 | 57 | 247 | 2.0 | 6.0 | 0.00 | 0.00 | 0.00 | 71 | 1016.0 |
| 20260504180015 | 57 | 247 | 3.0 | 6.0 | 0.00 | 0.00 | 0.00 | 74 | 1015.9 |
| 20260504175015 | 58 | 247 | 4.0 | 8.0 | 0.00 | 0.00 | 0.00 | 75 | 1015.9 |
| 20260504174015 | 59 | 225 | 4.0 | 8.0 | 0.00 | 0.00 | 0.00 | 76 | 1015.9 |
| 20260504173015 | 59 | 247 | 4.0 | 6.0 | 0.00 | 0.00 | 0.00 | 77 | 1016.1 |
| 20260504172015 | 60 | 247 | 3.0 | 5.0 | 0.00 | 0.00 | 0.00 | 77 | 1015.9 |
| 20260504171015 | 60 | 247 | 2.0 | 5.0 | 0.00 | 0.00 | 0.00 | 72 | 1015.9 |
| 20260504151015 | 63 | 292 | 2.0 | 5.0 | 0.00 | 0.00 | 0.00 | 58 | 1016.0 |
| 20260504141015 | 65 | 180 | 1.0 | 3.0 | 0.00 | 0.00 | 0.00 | 58 | 1016.4 |